TimeCST,TemperatureF,Dew PointF,Humidity,Sea Level PressureIn,VisibilityMPH,Wind Direction,Wind SpeedMPH,Gust SpeedMPH,PrecipitationIn,Events,Conditions,WindDirDegrees,DateUTC
12:53 AM,53.1,39.0,59,29.75,10.0,SW,15.0,-,N/A,,Clear,230,2014-02-17 06:53:00
1:53 AM,51.1,39.0,63,29.77,10.0,WSW,13.8,-,N/A,,Clear,240,2014-02-17 07:53:00
2:53 AM,61.0,28.9,30,29.80,10.0,WNW,23.0,38.0,N/A,,Clear,300,2014-02-17 08:53:00
3:01 AM,62.6,26.6,26,29.85,10.0,NW,28.8,36.8,N/A,,Clear,310,2014-02-17 09:01:00
3:53 AM,57.0,28.9,34,29.88,10.0,NNW,25.3,31.1,N/A,,Clear,340,2014-02-17 09:53:00
4:53 AM,55.0,25.0,31,29.96,10.0,NNW,21.9,34.5,N/A,,Clear,340,2014-02-17 10:53:00
5:53 AM,54.0,19.9,26,30.01,10.0,North,23.0,29.9,N/A,,Clear,350,2014-02-17 11:53:00
6:53 AM,51.1,17.1,26,30.06,10.0,North,26.5,34.5,N/A,,Clear,350,2014-02-17 12:53:00
7:53 AM,50.0,21.0,32,30.10,10.0,North,23.0,32.2,N/A,,Clear,350,2014-02-17 13:53:00
8:53 AM,50.0,26.1,39,30.14,10.0,North,15.0,-,N/A,,Clear,360,2014-02-17 14:53:00
9:53 AM,53.1,27.0,37,30.17,10.0,North,23.0,28.8,N/A,,Clear,10,2014-02-17 15:53:00
10:53 AM,57.9,25.0,28,30.17,10.0,North,20.7,29.9,N/A,,Clear,10,2014-02-17 16:53:00
11:53 AM,60.1,24.1,25,30.17,10.0,NNW,16.1,25.3,N/A,,Clear,340,2014-02-17 17:53:00
12:53 PM,61.0,21.9,22,30.16,10.0,North,18.4,23.0,N/A,,Clear,350,2014-02-17 18:53:00
1:53 PM,62.1,21.0,21,30.14,10.0,North,10.4,-,N/A,,Clear,350,2014-02-17 19:53:00
2:53 PM,62.1,21.0,21,30.13,10.0,West,6.9,-,N/A,,Clear,280,2014-02-17 20:53:00
3:53 PM,63.0,19.0,18,30.13,10.0,NW,5.8,-,N/A,,Clear,310,2014-02-17 21:53:00
4:53 PM,62.1,19.0,19,30.13,10.0,South,4.6,-,N/A,,Clear,180,2014-02-17 22:53:00
5:53 PM,57.9,23.0,26,30.13,10.0,South,4.6,-,N/A,,Clear,170,2014-02-17 23:53:00
6:53 PM,50.0,21.9,33,30.14,10.0,SSE,6.9,-,N/A,,Clear,150,2014-02-18 00:53:00
7:53 PM,45.0,24.1,44,30.15,10.0,SSE,8.1,-,N/A,,Clear,160,2014-02-18 01:53:00
8:53 PM,39.9,23.0,51,30.16,10.0,South,10.4,-,N/A,,Clear,180,2014-02-18 02:53:00
9:53 PM,43.0,24.1,47,30.15,10.0,South,11.5,-,N/A,,Clear,190,2014-02-18 03:53:00
10:53 PM,44.1,24.1,45,30.12,10.0,South,13.8,-,N/A,,Clear,190,2014-02-18 04:53:00
11:53 PM,43.0,24.1,47,30.09,10.0,SSW,16.1,-,N/A,,Clear,200,2014-02-18 05:53:00